• în România
  • Lista ţărilor
  • Pe 7 zile
  • Temperatura apei
  • Hartă satelitară
  • Meteo pe hartă
  • Widget-uri
  • user-avatar
    Intrare

    Meteo pe oră la Wiktoria

    Astăzi, 15 Decembrie, Vineri

    Timp Temperatura Precipitaţii Vânt Presiune Umiditate
    00:00 +20°C° 0 mm 4 m/s 746 mmHg 68%
    01:00 +19°C° 0 mm 4 m/s 746 mmHg 69%
    02:00 +18°C° 0 mm 4 m/s 746 mmHg 71%
    03:00 +17°C° 0 mm 4 m/s 746 mmHg 72%
    04:00 +16°C° 0 mm 3 m/s 746 mmHg 74%
    05:00 +17°C° 0 mm 3 m/s 746 mmHg 71%
    06:00 +18°C° 0 mm 3 m/s 746 mmHg 68%
    07:00 +19°C° 0 mm 3 m/s 747 mmHg 65%
    08:00 +21°C° 0 mm 2 m/s 746 mmHg 57%
    09:00 +25°C° 0 mm 2 m/s 746 mmHg 49%
    10:00 +28°C° 0 mm 2 m/s 746 mmHg 39%
    11:00 +29°C° 0 mm 2 m/s 746 mmHg 35%
    12:00 +30°C° 0 mm 3 m/s 746 mmHg 32%
    13:00 +32°C° 0 mm 4 m/s 745 mmHg 28%
    14:00 +32°C° 0 mm 4 m/s 745 mmHg 27%
    15:00 +33°C° 0 mm 4 m/s 745 mmHg 27%
    16:00 +31°C° 0 mm 3 m/s 745 mmHg 30%
    17:00 +30°C° 0 mm 3 m/s 745 mmHg 34%
    18:00 +29°C° 0 mm 2 m/s 745 mmHg 37%
    19:00 +28°C° 0 mm 2 m/s 745 mmHg 40%
    20:00 +26°C° 0 mm 2 m/s 745 mmHg 42%
    21:00 +25°C° 0 mm 2 m/s 746 mmHg 43%
    22:00 +23°C° 0 mm 2 m/s 746 mmHg 44%
    23:00 +21°C° 0 mm 2 m/s 746 mmHg 48%

    Mâine, 16 Decembrie, Sâmbătă

    Timp Temperatura Precipitaţii Vânt Presiune Umiditate
    00:00 +20°C° 0 mm 2 m/s 747 mmHg 53%
    01:00 +19°C° 0 mm 2 m/s 747 mmHg 57%
    02:00 +19°C° 0 mm 2 m/s 747 mmHg 60%
    03:00 +18°C° 0 mm 2 m/s 747 mmHg 64%
    04:00 +17°C° 0 mm 2 m/s 747 mmHg 67%
    05:00 +18°C° 0 mm 2 m/s 747 mmHg 64%
    06:00 +20°C° 0 mm 2 m/s 748 mmHg 60%
    07:00 +21°C° 0 mm 2 m/s 748 mmHg 57%
    08:00 +25°C° 0 mm 1 m/s 749 mmHg 48%
    09:00 +27°C° 0 mm 1 m/s 749 mmHg 40%
    10:00 +30°C° 0 mm 1 m/s 749 mmHg 31%
    11:00 +31°C° 0 mm 2 m/s 748 mmHg 30%
    12:00 +32°C° 0 mm 2 m/s 748 mmHg 29%
    13:00 +34°C° 0 mm 3 m/s 748 mmHg 28%
    14:00 +34°C° 0 mm 3 m/s 747 mmHg 27%
    15:00 +34°C° 0 mm 3 m/s 747 mmHg 26%
    16:00 +35°C° 0 mm 3 m/s 747 mmHg 25%
    17:00 +33°C° 0 mm 3 m/s 747 mmHg 28%
    18:00 +31°C° 0 mm 3 m/s 747 mmHg 32%
    19:00 +29°C° 0 mm 2 m/s 747 mmHg 35%
    20:00 +27°C° 0 mm 3 m/s 748 mmHg 40%
    21:00 +25°C° 0 mm 4 m/s 748 mmHg 46%
    22:00 +22°C° 0 mm 5 m/s 749 mmHg 51%
    23:00 +21°C° 0 mm 4 m/s 749 mmHg 56%

    Poimâine, 17 Decembrie, Duminică

    Timp Temperatura Precipitaţii Vânt Presiune Umiditate
    00:00 +20°C° 0 mm 4 m/s 749 mmHg 61%
    01:00 +19°C° 0 mm 4 m/s 749 mmHg 66%
    02:00 +19°C° 0 mm 4 m/s 749 mmHg 69%
    03:00 +18°C° 0 mm 3 m/s 749 mmHg 72%
    04:00 +17°C° 0 mm 3 m/s 749 mmHg 75%
    05:00 +19°C° 0 mm 3 m/s 749 mmHg 72%
    06:00 +20°C° 0 mm 3 m/s 749 mmHg 68%
    07:00 +21°C° 0 mm 3 m/s 749 mmHg 65%
    08:00 +25°C° 0 mm 2 m/s 749 mmHg 56%
    09:00 +28°C° 0 mm 2 m/s 749 mmHg 48%
    10:00 +31°C° 0 mm 2 m/s 749 mmHg 40%
    11:00 +32°C° 0 mm 1 m/s 749 mmHg 35%
    12:00 +34°C° 0 mm 1 m/s 748 mmHg 29%
    13:00 +36°C° 0 mm 1 m/s 748 mmHg 24%
    14:00 +36°C° 0 mm 1 m/s 747 mmHg 23%
    15:00 +37°C° 0 mm 2 m/s 747 mmHg 21%
    16:00 +37°C° 0 mm 2 m/s 746 mmHg 20%
    17:00 +35°C° 0 mm 2 m/s 747 mmHg 24%
    18:00 +34°C° 0 mm 3 m/s 747 mmHg 29%
    19:00 +31°C° 0 mm 3 m/s 747 mmHg 33%
    20:00 +29°C° 0 mm 3 m/s 747 mmHg 40%
    21:00 +27°C° 0 mm 3 m/s 747 mmHg 47%
    22:00 +25°C° 0 mm 3 m/s 747 mmHg 54%
    23:00 +24°C° 0 mm 3 m/s 747 mmHg 57%

    18 Decembrie, Luni

    Timp Temperatura Precipitaţii Vânt Presiune Umiditate
    00:00 +24°C° 0 mm 3 m/s 747 mmHg 59%
    01:00 +23°C° 0 mm 2 m/s 747 mmHg 62%
    02:00 +22°C° 0 mm 3 m/s 746 mmHg 64%
    03:00 +22°C° 0 mm 3 m/s 746 mmHg 65%
    04:00 +22°C° 0 mm 3 m/s 746 mmHg 67%
    05:00 +24°C° 0 mm 3 m/s 746 mmHg 67%
    06:00 +25°C° 0 mm 3 m/s 747 mmHg 67%
    07:00 +25°C° 0 mm 3 m/s 747 mmHg 67%
    08:00 +28°C° 0 mm 3 m/s 747 mmHg 60%
    09:00 +30°C° 0 mm 3 m/s 747 mmHg 54%
    10:00 +33°C° 0 mm 3 m/s 747 mmHg 47%
    11:00 +34°C° 0 mm 3 m/s 746 mmHg 41%
    12:00 +36°C° 0 mm 3 m/s 746 mmHg 34%
    13:00 +37°C° 0 mm 2 m/s 745 mmHg 28%
    14:00 +38°C° 0 mm 2 m/s 745 mmHg 26%
    15:00 +38°C° 0 mm 2 m/s 744 mmHg 25%
    16:00 +37°C° 0 mm 1 m/s 744 mmHg 23%
    17:00 +36°C° 0 mm 1 m/s 744 mmHg 27%
    18:00 +35°C° 0 mm 1 m/s 743 mmHg 30%
    19:00 +33°C° 0 mm 1 m/s 743 mmHg 33%
    20:00 +32°C° 0 mm 2 m/s 743 mmHg 34%
    21:00 +31°C° 0 mm 2 m/s 743 mmHg 36%
    22:00 +29°C° 0 mm 3 m/s 743 mmHg 37%
    23:00 +29°C° 0 mm 3 m/s 742 mmHg 38%

    19 Decembrie, Marţi

    Timp Temperatura Precipitaţii Vânt Presiune Umiditate
    00:00 +29°C° 0 mm 4 m/s 741 mmHg 40%
    01:00 +28°C° 0 mm 4 m/s 741 mmHg 41%
    02:00 +28°C° 0 mm 5 m/s 740 mmHg 44%
    03:00 +28°C° 0 mm 6 m/s 740 mmHg 46%
    04:00 +28°C° 0 mm 7 m/s 739 mmHg 49%
    05:00 +29°C° 0 mm 7 m/s 739 mmHg 50%
    06:00 +29°C° 0 mm 8 m/s 739 mmHg 51%
    07:00 +31°C° 0 mm 8 m/s 739 mmHg 52%
    08:00 +34°C° 0 mm 8 m/s 738 mmHg 42%
    09:00 +38°C° 0 mm 8 m/s 738 mmHg 33%
    10:00 +41°C° 0 mm 8 m/s 738 mmHg 23%
    11:00 +43°C° 0 mm 9 m/s 738 mmHg 21%
    12:00 +44°C° 0 mm 10 m/s 738 mmHg 20%
    13:00 +46°C° 0 mm 11 m/s 738 mmHg 18%
    14:00 +40°C° 0,3 mm 10 m/s 738 mmHg 29%
    15:00 +35°C° 0,3 mm 9 m/s 738 mmHg 40%
    16:00 +32°C° 0,3 mm 7 m/s 738 mmHg 51%
    17:00 +30°C° 0,9 mm 5 m/s 739 mmHg 58%
    18:00 +28°C° 0,9 mm 3 m/s 739 mmHg 65%
    19:00 +27°C° 0,9 mm 1 m/s 740 mmHg 72%
    20:00 +27°C° 0,3 mm 1 m/s 741 mmHg 73%
    21:00 +26°C° 0,3 mm 1 m/s 741 mmHg 74%
    22:00 +26°C° 0,3 mm 1 m/s 741 mmHg 75%
    23:00 +25°C° 0,1 mm 2 m/s 741 mmHg 73%

    20 Decembrie, Miercuri

    Timp Temperatura Precipitaţii Vânt Presiune Umiditate
    00:00 +24°C° 0,1 mm 3 m/s 741 mmHg 71%
    01:00 +22°C° 0,1 mm 4 m/s 741 mmHg 70%
    02:00 +21°C° 0 mm 4 m/s 742 mmHg 69%
    03:00 +20°C° 0 mm 3 m/s 742 mmHg 69%
    04:00 +20°C° 0 mm 2 m/s 742 mmHg 68%
    05:00 +20°C° 0 mm 3 m/s 743 mmHg 64%
    06:00 +20°C° 0 mm 4 m/s 744 mmHg 59%
    07:00 +21°C° 0 mm 5 m/s 745 mmHg 55%
    08:00 +22°C° 0 mm 5 m/s 745 mmHg 50%
    09:00 +23°C° 0 mm 5 m/s 745 mmHg 44%
    10:00 +26°C° 0 mm 5 m/s 745 mmHg 38%
    11:00 +26°C° 0 mm 6 m/s 745 mmHg 38%
    12:00 +27°C° 0 mm 6 m/s 745 mmHg 37%
    13:00 +28°C° 0 mm 7 m/s 746 mmHg 37%
    14:00 +28°C° 0 mm 6 m/s 746 mmHg 36%
    15:00 +28°C° 0 mm 6 m/s 746 mmHg 34%
    16:00 +28°C° 0 mm 6 m/s 746 mmHg 33%
    17:00 +27°C° 0 mm 5 m/s 747 mmHg 35%
    18:00 +26°C° 0 mm 5 m/s 747 mmHg 37%
    19:00 +25°C° 0 mm 4 m/s 748 mmHg 38%
    20:00 +23°C° 0 mm 4 m/s 749 mmHg 42%
    21:00 +21°C° 0 mm 4 m/s 750 mmHg 45%
    22:00 +19°C° 0 mm 4 m/s 751 mmHg 49%
    23:00 +18°C° 0 mm 4 m/s 751 mmHg 54%
    Arată mai mult